Netzbetreibername:;Osterholzer Stadtwerke GmbH & Co. KG;;
Netz- oder Umspannebene:;Netzgebiet;;
Lastgangtyp:;Summenlast der Netzverluste;;
gesetzliche Grundlage:;� 23c Abs. 3 Nr. 3 EnWG;;
Einheit:;kW;;
Betrachtungszeitraum:;01.01.2021;31.12.2021;
;;;
Datum;von;bis;Wert
01.01.2021;00:00;00:15;718
01.01.2021;00:15;00:30;715
01.01.2021;00:30;00:45;691
01.01.2021;00:45;01:00;677
01.01.2021;01:00;01:15;673
01.01.2021;01:15;01:30;659
01.01.2021;01:30;01:45;636
01.01.2021;01:45;02:00;627
01.01.2021;02:00;02:15;606
01.01.2021;02:15;02:30;585
01.01.2021;02:30;02:45;569
01.01.2021;02:45;03:00;557
01.01.2021;03:00;03:15;552
01.01.2021;03:15;03:30;542
01.01.2021;03:30;03:45;528
01.01.2021;03:45;04:00;518
01.01.2021;04:00;04:15;511
01.01.2021;04:15;04:30;501
01.01.2021;04:30;04:45;494
01.01.2021;04:45;05:00;494
01.01.2021;05:00;05:15;501
01.01.2021;05:15;05:30;494
01.01.2021;05:30;05:45;495
01.01.2021;05:45;06:00;500
01.01.2021;06:00;06:15;503
01.01.2021;06:15;06:30;503
01.01.2021;06:30;06:45;508
01.01.2021;06:45;07:00;514
01.01.2021;07:00;07:15;509
01.01.2021;07:15;07:30;517
01.01.2021;07:30;07:45;528
01.01.2021;07:45;08:00;548
01.01.2021;08:00;08:15;561
01.01.2021;08:15;08:30;589
01.01.2021;08:30;08:45;600
01.01.2021;08:45;09:00;622
01.01.2021;09:00;09:15;655
01.01.2021;09:15;09:30;687
01.01.2021;09:30;09:45;703
01.01.2021;09:45;10:00;715
01.01.2021;10:00;10:15;730
01.01.2021;10:15;10:30;778
01.01.2021;10:30;10:45;819
01.01.2021;10:45;11:00;834
01.01.2021;11:00;11:15;870
01.01.2021;11:15;11:30;909
01.01.2021;11:30;11:45;912
01.01.2021;11:45;12:00;933
01.01.2021;12:00;12:15;942
01.01.2021;12:15;12:30;946
01.01.2021;12:30;12:45;920
01.01.2021;12:45;13:00;891
01.01.2021;13:00;13:15;861
01.01.2021;13:15;13:30;827
01.01.2021;13:30;13:45;832
01.01.2021;13:45;14:00;857
01.01.2021;14:00;14:15;885
01.01.2021;14:15;14:30;895
01.01.2021;14:30;14:45;903
01.01.2021;14:45;15:00;900
01.01.2021;15:00;15:15;917
01.01.2021;15:15;15:30;910
01.01.2021;15:30;15:45;921
01.01.2021;15:45;16:00;938
01.01.2021;16:00;16:15;974
01.01.2021;16:15;16:30;1.025
01.01.2021;16:30;16:45;1.119
01.01.2021;16:45;17:00;1.172
01.01.2021;17:00;17:15;1.215
01.01.2021;17:15;17:30;1.274
01.01.2021;17:30;17:45;1.313
01.01.2021;17:45;18:00;1.334
01.01.2021;18:00;18:15;1.348
01.01.2021;18:15;18:30;1.362
01.01.2021;18:30;18:45;1.365
01.01.2021;18:45;19:00;1.311
01.01.2021;19:00;19:15;1.291
01.01.2021;19:15;19:30;1.250
01.01.2021;19:30;19:45;1.215
01.01.2021;19:45;20:00;1.161
01.01.2021;20:00;20:15;1.111
01.01.2021;20:15;20:30;1.055
01.01.2021;20:30;20:45;1.014
01.01.2021;20:45;21:00;969
01.01.2021;21:00;21:15;993
01.01.2021;21:15;21:30;967
01.01.2021;21:30;21:45;939
01.01.2021;21:45;22:00;918
01.01.2021;22:00;22:15;884
01.01.2021;22:15;22:30;835
01.01.2021;22:30;22:45;796
01.01.2021;22:45;23:00;759
01.01.2021;23:00;23:15;720
01.01.2021;23:15;23:30;694
01.01.2021;23:30;23:45;652
02.01.2021;23:45;00:00;616
02.01.2021;00:00;00:15;600
02.01.2021;00:15;00:30;575
02.01.2021;00:30;00:45;553
02.01.2021;00:45;01:00;528
02.01.2021;01:00;01:15;523
02.01.2021;01:15;01:30;511,823751
02.01.2021;01:30;01:45;502,992216
02.01.2021;01:45;02:00;491,5698349
02.01.2021;02:00;02:15;492,9833769
02.01.2021;02:15;02:30;484,059631
02.01.2021;02:30;02:45;480,8963952
02.01.2021;02:45;03:00;479,4956243
02.01.2021;03:00;03:15;476,7008281
02.01.2021;03:15;03:30;475,0146918
02.01.2021;03:30;03:45;474,5652741
02.01.2021;03:45;04:00;472,3652671
02.01.2021;04:00;04:15;474,4538504
02.01.2021;04:15;04:30;478,2674691
02.01.2021;04:30;04:45;476,1613256
02.01.2021;04:45;05:00;485,1535831
02.01.2021;05:00;05:15;496
02.01.2021;05:15;05:30;502
02.01.2021;05:30;05:45;506
02.01.2021;05:45;06:00;514
02.01.2021;06:00;06:15;539
02.01.2021;06:15;06:30;550
02.01.2021;06:30;06:45;556
02.01.2021;06:45;07:00;571
02.01.2021;07:00;07:15;584
02.01.2021;07:15;07:30;609
02.01.2021;07:30;07:45;634
02.01.2021;07:45;08:00;662
02.01.2021;08:00;08:15;707
02.01.2021;08:15;08:30;728
02.01.2021;08:30;08:45;761
02.01.2021;08:45;09:00;791
02.01.2021;09:00;09:15;828
02.01.2021;09:15;09:30;887
02.01.2021;09:30;09:45;922
02.01.2021;09:45;10:00;956
02.01.2021;10:00;10:15;986
02.01.2021;10:15;10:30;1.039
02.01.2021;10:30;10:45;1.054
02.01.2021;10:45;11:00;1.077
02.01.2021;11:00;11:15;1.098
02.01.2021;11:15;11:30;1.164
02.01.2021;11:30;11:45;1.206
02.01.2021;11:45;12:00;1.227
02.01.2021;12:00;12:15;1.252
02.01.2021;12:15;12:30;1.277
02.01.2021;12:30;12:45;1.273
02.01.2021;12:45;13:00;1.283
02.01.2021;13:00;13:15;1.252
02.01.2021;13:15;13:30;1.216
02.01.2021;13:30;13:45;1.197
02.01.2021;13:45;14:00;1.186
02.01.2021;14:00;14:15;1.164
02.01.2021;14:15;14:30;1.133
02.01.2021;14:30;14:45;1.132
02.01.2021;14:45;15:00;1.135
02.01.2021;15:00;15:15;1.136
02.01.2021;15:15;15:30;1.141
02.01.2021;15:30;15:45;1.119
02.01.2021;15:45;16:00;1.123
02.01.2021;16:00;16:15;1.147
02.01.2021;16:15;16:30;1.213
02.01.2021;16:30;16:45;1.269
02.01.2021;16:45;17:00;1.292
02.01.2021;17:00;17:15;1.326
02.01.2021;17:15;17:30;1.388
02.01.2021;17:30;17:45;1.453
02.01.2021;17:45;18:00;1.485
02.01.2021;18:00;18:15;1.498
02.01.2021;18:15;18:30;1.491
02.01.2021;18:30;18:45;1.470
02.01.2021;18:45;19:00;1.429
02.01.2021;19:00;19:15;1.386
02.01.2021;19:15;19:30;1.322
02.01.2021;19:30;19:45;1.270
02.01.2021;19:45;20:00;1.221
02.01.2021;20:00;20:15;1.153
02.01.2021;20:15;20:30;1.097
02.01.2021;20:30;20:45;1.062
02.01.2021;20:45;21:00;1.017
02.01.2021;21:00;21:15;1.024
02.01.2021;21:15;21:30;998
02.01.2021;21:30;21:45;973
02.01.2021;21:45;22:00;940
02.01.2021;22:00;22:15;913
02.01.2021;22:15;22:30;875
02.01.2021;22:30;22:45;832
02.01.2021;22:45;23:00;795
02.01.2021;23:00;23:15;755
02.01.2021;23:15;23:30;726
02.01.2021;23:30;23:45;685
03.01.2021;23:45;00:00;658
03.01.2021;00:00;00:15;625
03.01.2021;00:15;00:30;587
03.01.2021;00:30;00:45;568
03.01.2021;00:45;01:00;549
03.01.2021;01:00;01:15;531
03.01.2021;01:15;01:30;516
03.01.2021;01:30;01:45;510
03.01.2021;01:45;02:00;498
03.01.2021;02:00;02:15;497
03.01.2021;02:15;02:30;486
03.01.2021;02:30;02:45;480
03.01.2021;02:45;03:00;475
03.01.2021;03:00;03:15;478
03.01.2021;03:15;03:30;474,2049422
03.01.2021;03:30;03:45;471,5777175
03.01.2021;03:45;04:00;468,3419834
03.01.2021;04:00;04:15;471,7519029
03.01.2021;04:15;04:30;463,6025661
03.01.2021;04:30;04:45;466
03.01.2021;04:45;05:00;467
03.01.2021;05:00;05:15;473
03.01.2021;05:15;05:30;475
03.01.2021;05:30;05:45;474
03.01.2021;05:45;06:00;484
03.01.2021;06:00;06:15;488
03.01.2021;06:15;06:30;503
03.01.2021;06:30;06:45;512
03.01.2021;06:45;07:00;530
03.01.2021;07:00;07:15;538
03.01.2021;07:15;07:30;552
03.01.2021;07:30;07:45;568
03.01.2021;07:45;08:00;597
03.01.2021;08:00;08:15;626
03.01.2021;08:15;08:30;672
03.01.2021;08:30;08:45;695
03.01.2021;08:45;09:00;725
03.01.2021;09:00;09:15;775
03.01.2021;09:15;09:30;809
03.01.2021;09:30;09:45;857
03.01.2021;09:45;10:00;895
03.01.2021;10:00;10:15;932
03.01.2021;10:15;10:30;963
03.01.2021;10:30;10:45;984
03.01.2021;10:45;11:00;1.017
03.01.2021;11:00;11:15;1.057
03.01.2021;11:15;11:30;1.101
03.01.2021;11:30;11:45;1.116
03.01.2021;11:45;12:00;1.149
03.01.2021;12:00;12:15;1.075
03.01.2021;12:15;12:30;1.044
03.01.2021;12:30;12:45;1.098
03.01.2021;12:45;13:00;1.180
03.01.2021;13:00;13:15;1.158
03.01.2021;13:15;13:30;1.167
03.01.2021;13:30;13:45;1.159
03.01.2021;13:45;14:00;1.128
03.01.2021;14:00;14:15;1.089
03.01.2021;14:15;14:30;1.054
03.01.2021;14:30;14:45;1.053
03.01.2021;14:45;15:00;1.047
03.01.2021;15:00;15:15;1.046
03.01.2021;15:15;15:30;1.049
03.01.2021;15:30;15:45;1.036
03.01.2021;15:45;16:00;1.025
03.01.2021;16:00;16:15;1.039
03.01.2021;16:15;16:30;1.086
03.01.2021;16:30;16:45;1.156
03.01.2021;16:45;17:00;1.242
03.01.2021;17:00;17:15;1.332
03.01.2021;17:15;17:30;1.398
03.01.2021;17:30;17:45;1.438
03.01.2021;17:45;18:00;1.457
03.01.2021;18:00;18:15;1.454
03.01.2021;18:15;18:30;1.435
03.01.2021;18:30;18:45;1.455
03.01.2021;18:45;19:00;1.406
03.01.2021;19:00;19:15;1.352
03.01.2021;19:15;19:30;1.291
03.01.2021;19:30;19:45;1.244
03.01.2021;19:45;20:00;1.203
03.01.2021;20:00;20:15;1.138
03.01.2021;20:15;20:30;1.087
03.01.2021;20:30;20:45;1.031
03.01.2021;20:45;21:00;968
03.01.2021;21:00;21:15;997
03.01.2021;21:15;21:30;968
03.01.2021;21:30;21:45;961
03.01.2021;21:45;22:00;924
03.01.2021;22:00;22:15;880
03.01.2021;22:15;22:30;848
03.01.2021;22:30;22:45;799
03.01.2021;22:45;23:00;762
03.01.2021;23:00;23:15;719
03.01.2021;23:15;23:30;689
03.01.2021;23:30;23:45;655
04.01.2021;23:45;00:00;628
04.01.2021;00:00;00:15;603
04.01.2021;00:15;00:30;571
04.01.2021;00:30;00:45;551
04.01.2021;00:45;01:00;538
04.01.2021;01:00;01:15;522
04.01.2021;01:15;01:30;522
04.01.2021;01:30;01:45;514
04.01.2021;01:45;02:00;512
04.01.2021;02:00;02:15;495
04.01.2021;02:15;02:30;497
04.01.2021;02:30;02:45;494
04.01.2021;02:45;03:00;509
04.01.2021;03:00;03:15;499
04.01.2021;03:15;03:30;493
04.01.2021;03:30;03:45;490
04.01.2021;03:45;04:00;488
04.01.2021;04:00;04:15;498
04.01.2021;04:15;04:30;511
04.01.2021;04:30;04:45;511
04.01.2021;04:45;05:00;512
04.01.2021;05:00;05:15;556
04.01.2021;05:15;05:30;558
04.01.2021;05:30;05:45;577
04.01.2021;05:45;06:00;603
04.01.2021;06:00;06:15;660
04.01.2021;06:15;06:30;689
04.01.2021;06:30;06:45;729
04.01.2021;06:45;07:00;769
04.01.2021;07:00;07:15;809
04.01.2021;07:15;07:30;860
04.01.2021;07:30;07:45;915
04.01.2021;07:45;08:00;959
04.01.2021;08:00;08:15;1.007
04.01.2021;08:15;08:30;1.039
04.01.2021;08:30;08:45;1.040
04.01.2021;08:45;09:00;1.069
04.01.2021;09:00;09:15;1.091
04.01.2021;09:15;09:30;1.119
04.01.2021;09:30;09:45;1.133
04.01.2021;09:45;10:00;1.148
04.01.2021;10:00;10:15;1.149
04.01.2021;10:15;10:30;1.166
04.01.2021;10:30;10:45;1.191
04.01.2021;10:45;11:00;1.216
04.01.2021;11:00;11:15;1.222
04.01.2021;11:15;11:30;1.267
04.01.2021;11:30;11:45;1.314
04.01.2021;11:45;12:00;1.333
04.01.2021;12:00;12:15;1.367
04.01.2021;12:15;12:30;1.364
04.01.2021;12:30;12:45;1.346
04.01.2021;12:45;13:00;1.310
04.01.2021;13:00;13:15;1.303
04.01.2021;13:15;13:30;1.276
04.01.2021;13:30;13:45;1.244
04.01.2021;13:45;14:00;1.234
04.01.2021;14:00;14:15;1.225
04.01.2021;14:15;14:30;1.220
04.01.2021;14:30;14:45;1.198
04.01.2021;14:45;15:00;1.193
04.01.2021;15:00;15:15;1.207
04.01.2021;15:15;15:30;1.172
04.01.2021;15:30;15:45;1.179
04.01.2021;15:45;16:00;1.196
04.01.2021;16:00;16:15;1.237
04.01.2021;16:15;16:30;1.260
04.01.2021;16:30;16:45;1.346
04.01.2021;16:45;17:00;1.403
04.01.2021;17:00;17:15;1.447
04.01.2021;17:15;17:30;1.504
04.01.2021;17:30;17:45;1.553
04.01.2021;17:45;18:00;1.555
04.01.2021;18:00;18:15;1.584
04.01.2021;18:15;18:30;1.583
04.01.2021;18:30;18:45;1.543
04.01.2021;18:45;19:00;1.485
04.01.2021;19:00;19:15;1.449
04.01.2021;19:15;19:30;1.410
04.01.2021;19:30;19:45;1.347
04.01.2021;19:45;20:00;1.314
04.01.2021;20:00;20:15;1.247
04.01.2021;20:15;20:30;1.182
04.01.2021;20:30;20:45;1.130
04.01.2021;20:45;21:00;1.083
04.01.2021;21:00;21:15;1.101
04.01.2021;21:15;21:30;1.056
04.01.2021;21:30;21:45;1.033
04.01.2021;21:45;22:00;1.000
04.01.2021;22:00;22:15;974
04.01.2021;22:15;22:30;902
04.01.2021;22:30;22:45;856
04.01.2021;22:45;23:00;806
04.01.2021;23:00;23:15;767
04.01.2021;23:15;23:30;725
04.01.2021;23:30;23:45;696
05.01.2021;23:45;00:00;651
05.01.2021;00:00;00:15;627
05.01.2021;00:15;00:30;600
05.01.2021;00:30;00:45;588
05.01.2021;00:45;01:00;566
05.01.2021;01:00;01:15;552
05.01.2021;01:15;01:30;545
05.01.2021;01:30;01:45;540
05.01.2021;01:45;02:00;534
05.01.2021;02:00;02:15;533
05.01.2021;02:15;02:30;524
05.01.2021;02:30;02:45;522
05.01.2021;02:45;03:00;517
05.01.2021;03:00;03:15;520
05.01.2021;03:15;03:30;513
05.01.2021;03:30;03:45;521
05.01.2021;03:45;04:00;519
05.01.2021;04:00;04:15;522
05.01.2021;04:15;04:30;519
05.01.2021;04:30;04:45;530
05.01.2021;04:45;05:00;543
05.01.2021;05:00;05:15;570
05.01.2021;05:15;05:30;573
05.01.2021;05:30;05:45;602
05.01.2021;05:45;06:00;632
05.01.2021;06:00;06:15;683
05.01.2021;06:15;06:30;721
05.01.2021;06:30;06:45;748
05.01.2021;06:45;07:00;785
05.01.2021;07:00;07:15;824
05.01.2021;07:15;07:30;865
05.01.2021;07:30;07:45;910
05.01.2021;07:45;08:00;964
05.01.2021;08:00;08:15;1.030
05.01.2021;08:15;08:30;1.056
05.01.2021;08:30;08:45;1.084
05.01.2021;08:45;09:00;1.110
05.01.2021;09:00;09:15;1.121
05.01.2021;09:15;09:30;1.163
05.01.2021;09:30;09:45;1.187
05.01.2021;09:45;10:00;1.196
05.01.2021;10:00;10:15;1.205
05.01.2021;10:15;10:30;1.224
05.01.2021;10:30;10:45;1.253
05.01.2021;10:45;11:00;1.283
05.01.2021;11:00;11:15;1.287
05.01.2021;11:15;11:30;1.325
05.01.2021;11:30;11:45;1.367
05.01.2021;11:45;12:00;1.393
05.01.2021;12:00;12:15;1.409
05.01.2021;12:15;12:30;1.375
05.01.2021;12:30;12:45;1.347
05.01.2021;12:45;13:00;1.311
05.01.2021;13:00;13:15;1.290
05.01.2021;13:15;13:30;1.295
05.01.2021;13:30;13:45;1.283
05.01.2021;13:45;14:00;1.252
05.01.2021;14:00;14:15;1.238
05.01.2021;14:15;14:30;1.233
05.01.2021;14:30;14:45;1.207
05.01.2021;14:45;15:00;1.190
05.01.2021;15:00;15:15;1.206
05.01.2021;15:15;15:30;1.204
05.01.2021;15:30;15:45;1.204
05.01.2021;15:45;16:00;1.239
05.01.2021;16:00;16:15;1.271
05.01.2021;16:15;16:30;1.308
05.01.2021;16:30;16:45;1.356
05.01.2021;16:45;17:00;1.411
05.01.2021;17:00;17:15;1.457
05.01.2021;17:15;17:30;1.506
05.01.2021;17:30;17:45;1.563
05.01.2021;17:45;18:00;1.614
05.01.2021;18:00;18:15;1.579
05.01.2021;18:15;18:30;1.586
05.01.2021;18:30;18:45;1.573
05.01.2021;18:45;19:00;1.503
05.01.2021;19:00;19:15;1.437
05.01.2021;19:15;19:30;1.419
05.01.2021;19:30;19:45;1.374
05.01.2021;19:45;20:00;1.333
05.01.2021;20:00;20:15;1.270
05.01.2021;20:15;20:30;1.211
05.01.2021;20:30;20:45;1.154
05.01.2021;20:45;21:00;1.107
05.01.2021;21:00;21:15;1.115
05.01.2021;21:15;21:30;1.065
05.01.2021;21:30;21:45;1.027
05.01.2021;21:45;22:00;997
05.01.2021;22:00;22:15;972
05.01.2021;22:15;22:30;924
05.01.2021;22:30;22:45;870
05.01.2021;22:45;23:00;825
05.01.2021;23:00;23:15;771
05.01.2021;23:15;23:30;738
05.01.2021;23:30;23:45;686
06.01.2021;23:45;00:00;660
06.01.2021;00:00;00:15;630
06.01.2021;00:15;00:30;604
06.01.2021;00:30;00:45;585
06.01.2021;00:45;01:00;573
06.01.2021;01:00;01:15;554
06.01.2021;01:15;01:30;546
06.01.2021;01:30;01:45;546
06.01.2021;01:45;02:00;533
06.01.2021;02:00;02:15;539
06.01.2021;02:15;02:30;532
06.01.2021;02:30;02:45;527
06.01.2021;02:45;03:00;523
06.01.2021;03:00;03:15;526
06.01.2021;03:15;03:30;523
06.01.2021;03:30;03:45;522
06.01.2021;03:45;04:00;521
06.01.2021;04:00;04:15;529
06.01.2021;04:15;04:30;524
06.01.2021;04:30;04:45;537
06.01.2021;04:45;05:00;552
06.01.2021;05:00;05:15;568
06.01.2021;05:15;05:30;585
06.01.2021;05:30;05:45;608
06.01.2021;05:45;06:00;641
06.01.2021;06:00;06:15;683
06.01.2021;06:15;06:30;716
06.01.2021;06:30;06:45;743
06.01.2021;06:45;07:00;792
06.01.2021;07:00;07:15;832
06.01.2021;07:15;07:30;883
06.01.2021;07:30;07:45;921
06.01.2021;07:45;08:00;984
06.01.2021;08:00;08:15;1.022
06.01.2021;08:15;08:30;1.049
06.01.2021;08:30;08:45;1.080
06.01.2021;08:45;09:00;1.089
06.01.2021;09:00;09:15;1.124
06.01.2021;09:15;09:30;1.147
06.01.2021;09:30;09:45;1.143
06.01.2021;09:45;10:00;1.146
06.01.2021;10:00;10:15;1.176
06.01.2021;10:15;10:30;1.183
06.01.2021;10:30;10:45;1.185
06.01.2021;10:45;11:00;1.203
06.01.2021;11:00;11:15;1.223
06.01.2021;11:15;11:30;1.245
06.01.2021;11:30;11:45;1.278
06.01.2021;11:45;12:00;1.293
06.01.2021;12:00;12:15;1.318
06.01.2021;12:15;12:30;1.339
06.01.2021;12:30;12:45;1.332
06.01.2021;12:45;13:00;1.333
06.01.2021;13:00;13:15;1.307
06.01.2021;13:15;13:30;1.294
06.01.2021;13:30;13:45;1.267
06.01.2021;13:45;14:00;1.231
06.01.2021;14:00;14:15;1.232
06.01.2021;14:15;14:30;1.233
06.01.2021;14:30;14:45;1.250
06.01.2021;14:45;15:00;1.222
06.01.2021;15:00;15:15;1.217
06.01.2021;15:15;15:30;1.211
06.01.2021;15:30;15:45;1.210
06.01.2021;15:45;16:00;1.226
06.01.2021;16:00;16:15;1.250
06.01.2021;16:15;16:30;1.293
06.01.2021;16:30;16:45;1.373
06.01.2021;16:45;17:00;1.421
06.01.2021;17:00;17:15;1.480
06.01.2021;17:15;17:30;1.511
06.01.2021;17:30;17:45;1.595
06.01.2021;17:45;18:00;1.646
06.01.2021;18:00;18:15;1.617
06.01.2021;18:15;18:30;1.602
06.01.2021;18:30;18:45;1.579
06.01.2021;18:45;19:00;1.564
06.01.2021;19:00;19:15;1.498
06.01.2021;19:15;19:30;1.444
06.01.2021;19:30;19:45;1.398
06.01.2021;19:45;20:00;1.340
06.01.2021;20:00;20:15;1.276
06.01.2021;20:15;20:30;1.205
06.01.2021;20:30;20:45;1.157
06.01.2021;20:45;21:00;1.113
06.01.2021;21:00;21:15;1.124
06.01.2021;21:15;21:30;1.079
06.01.2021;21:30;21:45;1.064
06.01.2021;21:45;22:00;1.023
06.01.2021;22:00;22:15;980
06.01.2021;22:15;22:30;926
06.01.2021;22:30;22:45;872
06.01.2021;22:45;23:00;827
06.01.2021;23:00;23:15;794
06.01.2021;23:15;23:30;755
06.01.2021;23:30;23:45;715
07.01.2021;23:45;00:00;671
07.01.2021;00:00;00:15;645
07.01.2021;00:15;00:30;620
07.01.2021;00:30;00:45;606
07.01.2021;00:45;01:00;595
07.01.2021;01:00;01:15;581
07.01.2021;01:15;01:30;573
07.01.2021;01:30;01:45;566
07.01.2021;01:45;02:00;557
07.01.2021;02:00;02:15;550
07.01.2021;02:15;02:30;546
07.01.2021;02:30;02:45;539
07.01.2021;02:45;03:00;531
07.01.2021;03:00;03:15;535
07.01.2021;03:15;03:30;528
07.01.2021;03:30;03:45;532
07.01.2021;03:45;04:00;534
07.01.2021;04:00;04:15;543
07.01.2021;04:15;04:30;548
07.01.2021;04:30;04:45;560
07.01.2021;04:45;05:00;576
07.01.2021;05:00;05:15;602
07.01.2021;05:15;05:30;606
07.01.2021;05:30;05:45;631
07.01.2021;05:45;06:00;664
07.01.2021;06:00;06:15;704
07.01.2021;06:15;06:30;739
07.01.2021;06:30;06:45;779
07.01.2021;06:45;07:00;811
07.01.2021;07:00;07:15;855
07.01.2021;07:15;07:30;892
07.01.2021;07:30;07:45;939
07.01.2021;07:45;08:00;992
07.01.2021;08:00;08:15;1.028
07.01.2021;08:15;08:30;1.067
07.01.2021;08:30;08:45;1.098
07.01.2021;08:45;09:00;1.104
07.01.2021;09:00;09:15;1.131
07.01.2021;09:15;09:30;1.143
07.01.2021;09:30;09:45;1.166
07.01.2021;09:45;10:00;1.190
07.01.2021;10:00;10:15;1.219
07.01.2021;10:15;10:30;1.236
07.01.2021;10:30;10:45;1.248
07.01.2021;10:45;11:00;1.253
07.01.2021;11:00;11:15;1.256
07.01.2021;11:15;11:30;1.276
07.01.2021;11:30;11:45;1.328
07.01.2021;11:45;12:00;1.363
07.01.2021;12:00;12:15;1.373
07.01.2021;12:15;12:30;1.394
07.01.2021;12:30;12:45;1.395
07.01.2021;12:45;13:00;1.387
07.01.2021;13:00;13:15;1.348
07.01.2021;13:15;13:30;1.319
07.01.2021;13:30;13:45;1.306
07.01.2021;13:45;14:00;1.263
07.01.2021;14:00;14:15;1.235
07.01.2021;14:15;14:30;1.234
07.01.2021;14:30;14:45;1.217
07.01.2021;14:45;15:00;1.219
07.01.2021;15:00;15:15;1.209
07.01.2021;15:15;15:30;1.221
07.01.2021;15:30;15:45;1.215
07.01.2021;15:45;16:00;1.217
07.01.2021;16:00;16:15;1.240
07.01.2021;16:15;16:30;1.273
07.01.2021;16:30;16:45;1.353
07.01.2021;16:45;17:00;1.407
07.01.2021;17:00;17:15;1.476
07.01.2021;17:15;17:30;1.526
07.01.2021;17:30;17:45;1.572
07.01.2021;17:45;18:00;1.645
07.01.2021;18:00;18:15;1.613
07.01.2021;18:15;18:30;1.593
07.01.2021;18:30;18:45;1.571
07.01.2021;18:45;19:00;1.549
07.01.2021;19:00;19:15;1.488
07.01.2021;19:15;19:30;1.448
07.01.2021;19:30;19:45;1.378
07.01.2021;19:45;20:00;1.338
07.01.2021;20:00;20:15;1.269
07.01.2021;20:15;20:30;1.209
07.01.2021;20:30;20:45;1.143
07.01.2021;20:45;21:00;1.087
07.01.2021;21:00;21:15;1.099
07.01.2021;21:15;21:30;1.074
07.01.2021;21:30;21:45;1.037
07.01.2021;21:45;22:00;1.003
07.01.2021;22:00;22:15;971
07.01.2021;22:15;22:30;916
07.01.2021;22:30;22:45;863
07.01.2021;22:45;23:00;818
07.01.2021;23:00;23:15;779
07.01.2021;23:15;23:30;734
07.01.2021;23:30;23:45;697
08.01.2021;23:45;00:00;664
08.01.2021;00:00;00:15;639
08.01.2021;00:15;00:30;613
08.01.2021;00:30;00:45;592
08.01.2021;00:45;01:00;572
08.01.2021;01:00;01:15;568
08.01.2021;01:15;01:30;560
08.01.2021;01:30;01:45;553
08.01.2021;01:45;02:00;546
08.01.2021;02:00;02:15;542
08.01.2021;02:15;02:30;540
08.01.2021;02:30;02:45;526
08.01.2021;02:45;03:00;522
08.01.2021;03:00;03:15;524
08.01.2021;03:15;03:30;525
08.01.2021;03:30;03:45;531
08.01.2021;03:45;04:00;529
08.01.2021;04:00;04:15;533
08.01.2021;04:15;04:30;534
08.01.2021;04:30;04:45;542
08.01.2021;04:45;05:00;558
08.01.2021;05:00;05:15;580
08.01.2021;05:15;05:30;594
08.01.2021;05:30;05:45;617
08.01.2021;05:45;06:00;644
08.01.2021;06:00;06:15;690
08.01.2021;06:15;06:30;720
08.01.2021;06:30;06:45;755
08.01.2021;06:45;07:00;807
08.01.2021;07:00;07:15;845
08.01.2021;07:15;07:30;878
08.01.2021;07:30;07:45;928
08.01.2021;07:45;08:00;985
08.01.2021;08:00;08:15;1.049
08.01.2021;08:15;08:30;1.067
08.01.2021;08:30;08:45;1.100
08.01.2021;08:45;09:00;1.109
08.01.2021;09:00;09:15;1.115
08.01.2021;09:15;09:30;1.150
08.01.2021;09:30;09:45;1.156
08.01.2021;09:45;10:00;1.172
08.01.2021;10:00;10:15;1.181
08.01.2021;10:15;10:30;1.190
08.01.2021;10:30;10:45;1.209
08.01.2021;10:45;11:00;1.224
08.01.2021;11:00;11:15;1.231
08.01.2021;11:15;11:30;1.268
08.01.2021;11:30;11:45;1.311
08.01.2021;11:45;12:00;1.318
08.01.2021;12:00;12:15;1.332
08.01.2021;12:15;12:30;1.342
08.01.2021;12:30;12:45;1.343
08.01.2021;12:45;13:00;1.336
08.01.2021;13:00;13:15;1.321
08.01.2021;13:15;13:30;1.276
08.01.2021;13:30;13:45;1.235
08.01.2021;13:45;14:00;1.209
08.01.2021;14:00;14:15;1.163
08.01.2021;14:15;14:30;1.153
08.01.2021;14:30;14:45;1.151
08.01.2021;14:45;15:00;1.130
08.01.2021;15:00;15:15;1.146
08.01.2021;15:15;15:30;1.134
08.01.2021;15:30;15:45;1.141
08.01.2021;15:45;16:00;1.140
08.01.2021;16:00;16:15;1.174
08.01.2021;16:15;16:30;1.221
08.01.2021;16:30;16:45;1.278
08.01.2021;16:45;17:00;1.351
08.01.2021;17:00;17:15;1.424
08.01.2021;17:15;17:30;1.491
08.01.2021;17:30;17:45;1.564
08.01.2021;17:45;18:00;1.597
08.01.2021;18:00;18:15;1.602
08.01.2021;18:15;18:30;1.589
08.01.2021;18:30;18:45;1.580
08.01.2021;18:45;19:00;1.556
08.01.2021;19:00;19:15;1.484
08.01.2021;19:15;19:30;1.424
08.01.2021;19:30;19:45;1.378
08.01.2021;19:45;20:00;1.342
08.01.2021;20:00;20:15;1.268
08.01.2021;20:15;20:30;1.206
08.01.2021;20:30;20:45;1.148
08.01.2021;20:45;21:00;1.103
08.01.2021;21:00;21:15;1.100
08.01.2021;21:15;21:30;1.078
08.01.2021;21:30;21:45;1.035
08.01.2021;21:45;22:00;990
08.01.2021;22:00;22:15;952
08.01.2021;22:15;22:30;907
08.01.2021;22:30;22:45;863
08.01.2021;22:45;23:00;824
08.01.2021;23:00;23:15;773
08.01.2021;23:15;23:30;746
08.01.2021;23:30;23:45;719
09.01.2021;23:45;00:00;684
09.01.2021;00:00;00:15;661
09.01.2021;00:15;00:30;634
09.01.2021;00:30;00:45;608
09.01.2021;00:45;01:00;594
09.01.2021;01:00;01:15;581
09.01.2021;01:15;01:30;562
09.01.2021;01:30;01:45;555
09.01.2021;01:45;02:00;535
09.01.2021;02:00;02:15;533
09.01.2021;02:15;02:30;526
09.01.2021;02:30;02:45;519
09.01.2021;02:45;03:00;513
09.01.2021;03:00;03:15;513
09.01.2021;03:15;03:30;506
09.01.2021;03:30;03:45;504
09.01.2021;03:45;04:00;505
09.01.2021;04:00;04:15;505
09.01.2021;04:15;04:30;510
09.01.2021;04:30;04:45;513
09.01.2021;04:45;05:00;513
09.01.2021;05:00;05:15;532
09.01.2021;05:15;05:30;529
09.01.2021;05:30;05:45;532
09.01.2021;05:45;06:00;539
09.01.2021;06:00;06:15;568
09.01.2021;06:15;06:30;578
09.01.2021;06:30;06:45;592
09.01.2021;06:45;07:00;608
09.01.2021;07:00;07:15;620
09.01.2021;07:15;07:30;651
09.01.2021;07:30;07:45;686
09.01.2021;07:45;08:00;722
09.01.2021;08:00;08:15;770
09.01.2021;08:15;08:30;812
09.01.2021;08:30;08:45;843
09.01.2021;08:45;09:00;884
09.01.2021;09:00;09:15;927
09.01.2021;09:15;09:30;960
09.01.2021;09:30;09:45;956
09.01.2021;09:45;10:00;975
09.01.2021;10:00;10:15;959
09.01.2021;10:15;10:30;966
09.01.2021;10:30;10:45;992
09.01.2021;10:45;11:00;1.028
09.01.2021;11:00;11:15;1.037
09.01.2021;11:15;11:30;1.099